Location: Varese
(45.8000°N, 8.8330°E)
Time: 01:57:53
(UTC+02:00)

ISS - Pass Details

Date: 17 May 2021
Orbit: 417 x 422 km, 51.6° (Epoch: 14 June)

Event Time Altitude Azimuth Distance (km) Brightness Sun altitude
Rises 03:41:12 0° 296° (WNW) 2,372 0.0 -17.5°
Reaches altitude 10° 03:43:20 10° 291° (WNW) 1,506 -1.1 -17.3°
Maximum altitude 03:46:38 52° 215° (SW) 530 -3.7 -17.0°
Drops below altitude 10° 03:49:55 10° 137° (SE) 1,500 -1.1 -16.6°
Sets 03:52:02 0° 133° (SE) 2,362 0.0 -16.4°
